[[{"header":{"parameterUnit":"m.s-1","parameterCategory":1,"la1":30.2992,"la2":30.254,"lo1":-89.0895,"lo2":-89.0443,"dy":0.0025,"dx":0.0025,"nx":19,"ny":19,"refTime":"2026-04-28T21:00:00:Z","depth":0,"parameterNumber":2,"parameterNumberName":"U-component_of_WINDS"},"data":[0,0,0,-2.6222,-2.6224,-2.6322,-2.6323,-2.6448,-2.6449,0,0,0,0,0,0,0,0,0,0,0,-2.6192,-2.6193,-2.6221,-2.6224,-2.6322,-2.6323,-2.6448,-2.6449,0,0,0,0,0,0,0,0,0,0,0,-2.6192,-2.6193,-2.6194,-2.6224,-2.6322,-2.6323,-2.6448,-2.6374,0,0,0,0,0,0,0,0,0,0,-2.6278,-2.625,-2.6192,-2.6194,-2.6225,-2.6322,-2.6323,-2.637,-2.6378,-2.6404,0,-2.6426,0,-2.644,-2.6458,-2.6458,0,0,0,-2.6224,-2.6243,-2.627,-2.6194,-2.6226,-2.6322,-2.6278,-2.6375,-2.6384,-2.6414,-2.6427,-2.6432,-2.6442,-2.6459,-2.6459,-2.6604,-2.6605,0,0,-2.6219,-2.6209,-2.6264,-2.6276,-2.6261,-2.6275,-2.6281,-2.638,-2.6394,-2.6428,-2.6435,-2.6444,-2.6459,-2.646,-2.6603,-2.6604,0,0,0,-2.6203,-2.6206,-2.623,-2.6271,-2.6289,-2.6278,-2.6285,-2.6389,-2.6398,-2.6436,-2.6445,-2.646,-2.6462,-2.6603,-2.6604,-2.6627,0,0,0,-2.62,-2.6196,-2.6228,-2.6223,-2.6287,-2.634,-2.6292,-2.6391,-2.6403,-2.6445,-2.646,-2.6463,-2.6602,-2.6603,-2.6624,-2.6638,0,0,0,-2.6186,-2.6195,-2.6209,-2.6222,-2.6264,-2.6339,-2.6354,-2.6394,-2.6408,-2.6458,-2.6463,-2.6602,-2.6603,-2.6623,-2.6635,-2.6673,0,0,0,-2.6168,-2.6228,-2.6209,-2.628,-2.6264,-2.6353,-2.6353,-2.642,-2.6466,-2.6461,-2.6602,-2.6604,-2.6622,-2.6633,-2.6671,-2.6702,-2.6715,0,0,-2.6238,-2.6236,-2.6279,-2.6265,-2.6355,-2.6339,-2.6433,-2.6483,-2.6497,-2.6568,-2.6571,-2.6625,-2.6635,-2.6673,-2.6791,-2.6801,0,0,0,-2.6298,-2.6328,-2.6354,-2.6397,-2.6438,-2.6473,-2.6511,-2.653,-2.6591,-2.6531,-2.665,-2.6657,-2.6679,-2.6694,-2.6703,-2.6722,-2.6611,-2.6611,-2.661,-2.6382,-2.6397,-2.6468,-2.6494,-2.6537,-2.6575,-2.6611,-2.6643,-2.6645,-2.6673,-2.6693,-2.6764,-2.6781,-2.6788,-2.6808,-2.6713,-2.6713,-2.6713,-2.6713,-2.6486,-2.653,-2.6533,-2.6602,-2.6617,-2.6676,-2.6717,-2.6716,-2.6773,-2.6749,-2.677,-2.6741,-2.6798,-2.6816,-2.6715,-2.6715,-2.6714,-2.6714,-2.6714,-2.6541,-2.6565,-2.6588,-2.6652,-2.6701,-2.6726,-2.6781,-2.6794,-2.6806,-2.6826,-2.6849,-2.6848,-2.6848,-2.6836,-2.6837,-2.6837,-2.6837,-2.6837,-2.6838,-2.6589,-2.6614,-2.6658,-2.6707,-2.6737,-2.6778,-2.6819,-2.6849,-2.6885,-2.689,-2.689,-2.6889,-2.6802,-2.6778,-2.6841,-2.6841,-2.684,-2.684,-2.684,-2.6685,-2.6665,-2.6734,-2.6764,-2.6823,-2.687,-2.6886,-2.6946,-2.6973,-2.7,-2.6996,-2.6929,-2.6927,-2.6921,-2.6901,-2.6993,-2.6993,-2.6993,-2.6993,-2.673,-2.6731,-2.6804,-2.6851,-2.6899,-2.6921,-2.6998,-2.7032,-2.7063,-2.7081,-2.707,-2.7046,-2.7039,-2.7041,-2.7032,-2.7014,-2.7132,-2.7132,-2.7132,-2.679,-2.6796,-2.6859,-2.6889,-2.6937,-2.6978,-2.7051,-2.7105,-2.7137,-2.7138,-2.7094,-2.7089,-2.705,-2.7037,-2.7035,-2.702,-2.6988,0,0]},{"header":{"parameterUnit":"m.s-1","parameterCategory":1,"la1":30.2992,"la2":30.254,"lo1":-89.0895,"lo2":-89.0443,"dy":0.0025,"dx":0.0025,"nx":19,"ny":19,"refTime":"2026-04-28T21:00:00:Z","depth":0,"parameterNumber":3,"parameterNumberName":"V-component_of_WINDS"},"data":[0,0,0,4.1915,4.1916,4.1958,4.1959,4.1995,4.1995,0,0,0,0,0,0,0,0,0,0,0,4.1893,4.1893,4.1915,4.1916,4.1958,4.1959,4.1995,4.1995,0,0,0,0,0,0,0,0,0,0,0,4.1893,4.1893,4.1893,4.1916,4.1958,4.1959,4.1995,4.1969,0,0,0,0,0,0,0,0,0,0,4.1931,4.1902,4.1893,4.1893,4.1916,4.1958,4.1959,4.1968,4.197,4.1969,0,4.1966,0,4.1981,4.1997,4.1997,0,0,0,4.1922,4.1899,4.192,4.1893,4.1917,4.1958,4.1941,4.197,4.1972,4.1972,4.1967,4.1968,4.1982,4.1997,4.1997,4.197,4.197,0,0,4.192,4.1895,4.1918,4.1921,4.1915,4.194,4.1942,4.1972,4.1963,4.1967,4.197,4.1982,4.1997,4.1997,4.1971,4.197,0,0,0,4.1909,4.1893,4.1913,4.1919,4.1928,4.1941,4.1944,4.1962,4.1971,4.197,4.1983,4.1997,4.1997,4.1971,4.1971,4.1927,0,0,0,4.1908,4.1887,4.1912,4.1897,4.1927,4.1946,4.1933,4.1969,4.1973,4.1983,4.1997,4.1997,4.1972,4.1971,4.193,4.1911,0,0,0,4.1894,4.1886,4.1889,4.1896,4.1913,4.1946,4.1957,4.197,4.198,4.1997,4.1998,4.1972,4.1971,4.1932,4.1914,4.1898,0,0,0,4.1871,4.1847,4.1888,4.1867,4.1913,4.192,4.1957,4.1962,4.1971,4.1997,4.1972,4.1971,4.1932,4.1916,4.19,4.188,4.187,0,0,4.1827,4.1841,4.1831,4.1868,4.1862,4.1915,4.1902,4.1932,4.1954,4.1963,4.1963,4.1929,4.1914,4.1898,4.1818,4.181,0,0,0,4.1809,4.1801,4.1805,4.1814,4.1838,4.1857,4.1893,4.1904,4.1914,4.1955,4.1919,4.1911,4.1903,4.1894,4.1887,4.1882,4.1966,4.1966,4.1966,4.171,4.1744,4.173,4.1769,4.1776,4.1815,4.1824,4.1846,4.1875,4.1866,4.1869,4.1816,4.1806,4.1801,4.1795,4.1861,4.186,4.186,4.186,4.1651,4.1646,4.1688,4.1689,4.1724,4.1725,4.1761,4.1782,4.1787,4.1816,4.1811,4.184,4.179,4.1787,4.1857,4.1858,4.1858,4.1858,4.1859,4.159,4.1594,4.1611,4.1629,4.1639,4.1678,4.1683,4.1713,4.1742,4.1736,4.1744,4.1744,4.175,4.1738,4.1738,4.1737,4.1737,4.1737,4.1737,4.1522,4.1542,4.1543,4.1569,4.158,4.1599,4.1638,4.1649,4.1669,4.1691,4.1692,4.1722,4.1779,4.1794,4.1734,4.1735,4.1735,4.1735,4.1736,4.1449,4.1471,4.1473,4.1484,4.1519,4.1527,4.1568,4.1588,4.1601,4.1603,4.1635,4.1672,4.1688,4.1694,4.1706,4.1627,4.1627,4.1627,4.1627,4.1399,4.1411,4.1421,4.1438,4.1457,4.1495,4.1495,4.1526,4.156,4.1571,4.1587,4.1605,4.161,4.1623,4.163,4.1642,4.1549,4.1549,4.1549,4.1357,4.1373,4.1367,4.1405,4.1435,4.1459,4.1461,4.1477,4.152,4.1546,4.158,4.1583,4.1613,4.1621,4.1647,4.1658,4.1681,0,0]}]]